TimeEST,TemperatureF,Dew PointF,Humidity,Sea Level PressureIn,VisibilityMPH,Wind Direction,Wind SpeedMPH,Gust SpeedMPH,PrecipitationIn,Events,Conditions,WindDirDegrees,DateUTC
12:53 AM,55.9,53.1,90,29.99,10.0,SSW,10.4,17.3,N/A,,Clear,200,2012-12-05 05:53:00
1:53 AM,55.0,52.0,89,29.98,10.0,SW,10.4,-,N/A,,Clear,220,2012-12-05 06:53:00
2:53 AM,54.0,51.1,90,29.95,10.0,SW,8.1,-,N/A,,Partly Cloudy,230,2012-12-05 07:53:00
3:53 AM,55.0,51.1,86,29.94,10.0,SW,11.5,17.3,N/A,,Mostly Cloudy,230,2012-12-05 08:53:00
4:53 AM,54.0,51.1,90,29.93,9.0,WSW,12.7,-,0.01,Rain,Light Rain,250,2012-12-05 09:53:00
5:53 AM,53.1,50.0,89,29.93,10.0,SW,9.2,-,0.00,,Overcast,230,2012-12-05 10:53:00
6:53 AM,53.1,50.0,89,29.94,10.0,West,6.9,-,N/A,,Overcast,270,2012-12-05 11:53:00
7:50 AM,55.4,48.2,77,29.97,10.0,WNW,10.4,-,N/A,,Mostly Cloudy,290,2012-12-05 12:50:00
7:53 AM,55.0,48.9,80,29.97,10.0,WNW,11.5,-,N/A,,Overcast,290,2012-12-05 12:53:00
9:53 AM,54.0,46.0,75,30.01,10.0,WNW,11.5,-,N/A,,Overcast,300,2012-12-05 14:53:00
10:08 AM,53.6,46.4,77,30.00,10.0,NW,11.5,-,N/A,,Overcast,320,2012-12-05 15:08:00
10:45 AM,57.2,44.6,63,29.99,10.0,NW,12.7,-,N/A,,Scattered Clouds,310,2012-12-05 15:45:00
10:53 AM,55.9,42.1,60,29.99,10.0,NW,15.0,21.9,N/A,,Partly Cloudy,310,2012-12-05 15:53:00
11:53 AM,55.0,36.0,49,29.98,10.0,WNW,15.0,-,N/A,,Clear,300,2012-12-05 16:53:00
12:53 PM,55.0,34.0,45,29.97,10.0,WNW,18.4,24.2,N/A,,Clear,300,2012-12-05 17:53:00
1:53 PM,53.1,35.1,50,29.97,10.0,WNW,11.5,-,N/A,,Clear,300,2012-12-05 18:53:00
2:53 PM,54.0,34.0,47,29.99,10.0,West,17.3,21.9,N/A,,Clear,280,2012-12-05 19:53:00
3:53 PM,51.1,30.0,44,30.01,10.0,WNW,17.3,24.2,N/A,,Clear,300,2012-12-05 20:53:00
4:53 PM,48.0,33.1,56,30.05,10.0,NW,15.0,-,N/A,,Scattered Clouds,320,2012-12-05 21:53:00
5:53 PM,46.9,28.0,48,30.09,10.0,NW,16.1,28.8,N/A,,Mostly Cloudy,310,2012-12-05 22:53:00
6:53 PM,44.1,23.0,43,30.11,10.0,NW,17.3,25.3,N/A,,Partly Cloudy,320,2012-12-05 23:53:00
7:53 PM,42.1,21.0,43,30.13,10.0,NW,19.6,29.9,N/A,,Clear,320,2012-12-06 00:53:00
8:53 PM,41.0,24.1,51,30.14,10.0,North,17.3,25.3,N/A,,Overcast,350,2012-12-06 01:53:00
9:53 PM,39.0,21.9,50,30.18,10.0,NNW,12.7,-,N/A,,Scattered Clouds,340,2012-12-06 02:53:00
10:53 PM,37.9,21.0,51,30.20,10.0,NNW,12.7,20.7,N/A,,Mostly Cloudy,330,2012-12-06 03:53:00
11:53 PM,36.0,19.9,52,30.20,10.0,NW,11.5,17.3,N/A,,Mostly Cloudy,320,2012-12-06 04:53:00